[[{"header":{"parameterUnit":"m.s-1","parameterCategory":1,"la1":30.2991,"la2":30.254,"lo1":-89.0895,"lo2":-89.0444,"dx":0.0017,"dy":0.0017,"nx":28,"ny":28,"refTime":"2023-01-10T15:00:00:Z","depth":0,"parameterNumber":2,"parameterNumberName":"U-component_of_WINDS"},"data":[0,0,0,0,0,0,0,0,0,0,0,0,0,0,0,0,0,0,0,0,0,0,0,0,0,0,0,0,0,0,0,0,0,0,0,0,0,0,0,0,0,0,0,0,0,0,0,0,0,0,0,0,0,0,0,0,0,0,0.889,0.889,0,0.8896,0.8896,0.8896,0.8894,0.8894,0.8894,0.8893,0.8899,0.89,0.89,0,0,0,0,0,0,0,0,0,0,0,0,0,0.8874,0.8875,0.889,0.889,0.889,0.8896,0.8896,0.8896,0.8894,0.8894,0.8894,0.8893,0.8899,0.89,0.89,0,0,0,0,0,0,0,0,0,0,0,0,0,0.8881,0.8875,0.889,0.8889,0.8889,0.8896,0.8896,0.8896,0.8894,0.8894,0.8893,0.8893,0.8899,0.89,0.89,0.8907,0,0,0.8902,0.8902,0,0,0,0,0,0,0,0,0.8881,0.8882,0.8889,0.8889,0.889,0.8894,0.8893,0.89,0.8894,0.8892,0.8893,0.8893,0.8898,0.8898,0.89,0.8908,0.8908,0.8902,0.8902,0.8902,0.8902,0,0,0,0,0,0,0,0.888,0.8881,0.8892,0.889,0.889,0.8889,0.8889,0.8894,0.8896,0.8892,0.8892,0.8893,0.8898,0.89,0.89,0.8908,0.8902,0.8902,0.8902,0.8902,0.8922,0.8922,0,0,0,0,0,0,0.888,0.8881,0.8892,0.8893,0.8884,0.8889,0.889,0.8893,0.8896,0.8896,0.8893,0.8893,0.8899,0.89,0.89,0.8909,0.8902,0.8902,0.8903,0.8921,0.8922,0.8922,0,0,0,0,0,0,0.8879,0.8881,0.8892,0.8887,0.8888,0.889,0.8893,0.8893,0.8895,0.8897,0.8897,0.8895,0.8899,0.89,0.8906,0.8909,0.8903,0.8903,0.8921,0.8921,0.8922,0.8926,0,0,0,0,0,0,0.8879,0.8881,0.8884,0.8887,0.8888,0.8897,0.8893,0.8893,0.8896,0.8895,0.8898,0.8899,0.8899,0.8905,0.8906,0.891,0.8903,0.8921,0.8921,0.8922,0.8926,0.8927,0.8927,0,0,0,0,0,0.8879,0.8885,0.8884,0.8885,0.8892,0.8897,0.8898,0.8899,0.8896,0.8899,0.89,0.8899,0.8908,0.8906,0.8907,0.8911,0.892,0.8921,0.8922,0.8925,0.8926,0.8927,0,0,0,0,0,0,0.8882,0.8885,0.8884,0.8892,0.8894,0.8897,0.8901,0.89,0.8903,0.8903,0.8902,0.8903,0.8909,0.891,0.8907,0.8917,0.8914,0.8915,0.8917,0.8918,0.8918,0.8918,0.8904,0,0,0,0,0,0.8884,0.8888,0.889,0.8897,0.8898,0.8899,0.8901,0.8901,0.8904,0.8905,0.8907,0.8909,0.8913,0.8915,0.8919,0.8926,0.8926,0.8929,0.893,0.893,0.8931,0.8935,0.8936,0.8924,0.8924,0.8924,0,0,0.8887,0.8889,0.8892,0.8897,0.8899,0.8904,0.89,0.8905,0.8908,0.8906,0.8911,0.8913,0.8915,0.8922,0.8925,0.8923,0.8935,0.8931,0.8932,0.8932,0.8935,0.8936,0.8937,0.8924,0.8924,0.8924,0,0,0.8895,0.8898,0.8903,0.8905,0.8908,0.8909,0.891,0.8913,0.8914,0.8919,0.8918,0.8921,0.8928,0.893,0.8931,0.894,0.8939,0.8941,0.8945,0.8949,0.895,0.8951,0.8954,0.8955,0.8942,0.8942,0.8942,0,0.8899,0.8906,0.8906,0.8911,0.8913,0.8911,0.8916,0.8918,0.8922,0.8924,0.8922,0.893,0.8931,0.8938,0.894,0.8942,0.8943,0.8941,0.895,0.8951,0.8951,0.8954,0.8955,0.8942,0.8942,0.8942,0.8942,0,0.891,0.8915,0.8919,0.8923,0.8925,0.893,0.8931,0.8933,0.8933,0.8933,0.8939,0.8941,0.8945,0.8946,0.8946,0.8953,0.8952,0.895,0.8946,0.8953,0.8955,0.8957,0.8942,0.8942,0.8942,0.8942,0,0,0.8921,0.8925,0.8926,0.8928,0.8931,0.8935,0.8939,0.8943,0.8945,0.8948,0.8951,0.8957,0.8955,0.8957,0.8957,0.896,0.8966,0.8957,0.8957,0.8959,0.8974,0.8975,0.8976,0.8965,0.8965,0.8965,0.8973,0,0.893,0.8938,0.8938,0.8946,0.895,0.8948,0.8952,0.8954,0.8955,0.8958,0.8959,0.8962,0.896,0.8961,0.8964,0.8965,0.8969,0.8964,0.8968,0.8969,0.8968,0.8978,0.8979,0.8987,0.8974,0.8975,0.8975,0,0.8941,0.8944,0.8952,0.8954,0.8956,0.896,0.8963,0.8966,0.8968,0.8969,0.8971,0.897,0.8974,0.8971,0.8976,0.8973,0.8975,0.8975,0.8976,0.8976,0.8972,0.8978,0.8989,0.899,0.8976,0.8976,0.8976,0,0.8948,0.8954,0.896,0.8961,0.8964,0.8967,0.8968,0.897,0.8972,0.8975,0.8976,0.8979,0.8981,0.8983,0.8983,0.898,0.8989,0.8985,0.8989,0.8989,0.8991,0.8991,0.9002,0.8992,0.8992,0.8992,0.8992,0,0.8958,0.8962,0.8963,0.8966,0.8972,0.8971,0.8977,0.8978,0.8979,0.8983,0.8981,0.8984,0.8984,0.8987,0.8987,0.8992,0.8993,0.8993,0.8993,0.8993,0.8993,0.8994,0.8993,0.8992,0.8992,0.8992,0.8992,0,0.8966,0.8967,0.8973,0.8975,0.8975,0.8979,0.8981,0.8984,0.8985,0.8989,0.899,0.899,0.8994,0.8994,0.8998,0.8998,0.9004,0.9003,0.9003,0.9003,0.9006,0.9006,0.9019,0.902,0.9009,0.901,0.901,0,0.8972,0.8976,0.8979,0.8981,0.8982,0.8986,0.8988,0.8988,0.899,0.8993,0.8995,0.8999,0.9001,0.9007,0.9008,0.9011,0.901,0.9014,0.901,0.901,0.901,0.901,0.901,0.9015,0.9015,0.9015,0.9015,0,0.8983,0.8983,0.8986,0.8989,0.8992,0.8995,0.8997,0.8999,0.8999,0.9001,0.9005,0.9007,0.9011,0.9014,0.9017,0.9018,0.9016,0.9016,0.9017,0.9018,0.9017,0.9017,0.9005,0.9016,0.9016,0.9016,0.9016,0.9016,0.8991,0.8994,0.8996,0.8999,0.9001,0.9003,0.9006,0.9007,0.901,0.9013,0.9013,0.9017,0.9018,0.9022,0.9023,0.9026,0.9025,0.9026,0.9027,0.9027,0.9027,0.9017,0.9027,0.9027,0.9027,0.9027,0.9027,0,0.9001,0.9002,0.9005,0.9009,0.9011,0.901,0.9012,0.9014,0.9018,0.902,0.9022,0.9026,0.9029,0.903,0.9033,0.9035,0.9035,0.9036,0.9036,0.9036,0.9029,0.9027,0.9037,0.9037,0.9037,0.9037,0.9037,0.9037,0.9007,0.9012,0.9012,0.9018,0.9019,0.9023,0.9024,0.9026,0.9028,0.9032,0.9035,0.9035,0.9037,0.904,0.9042,0.9042,0.9043,0.9045,0.9045,0.9038,0.9037,0.9036,0.9035,0.9045,0.9045,0.9052,0.9052,0.9052]},{"header":{"parameterUnit":"m.s-1","parameterCategory":1,"la1":30.2991,"la2":30.254,"lo1":-89.0895,"lo2":-89.0444,"dx":0.0017,"dy":0.0017,"nx":28,"ny":28,"refTime":"2023-01-10T15:00:00:Z","depth":0,"parameterNumber":3,"parameterNumberName":"V-component_of_WINDS"},"data":[0,0,0,0,0,0,0,0,0,0,0,0,0,0,0,0,0,0,0,0,0,0,0,0,0,0,0,0,0,0,0,0,0,0,0,0,0,0,0,0,0,0,0,0,0,0,0,0,0,0,0,0,0,0,0,0,0,0,3.9471,3.9471,0,3.9509,3.951,3.951,3.9477,3.9475,3.9474,3.9472,3.9508,3.9511,3.9513,0,0,0,0,0,0,0,0,0,0,0,0,0,3.9366,3.9368,3.9471,3.9471,3.9472,3.9509,3.951,3.951,3.9477,3.9475,3.9473,3.9472,3.9508,3.951,3.9513,0,0,0,0,0,0,0,0,0,0,0,0,0,3.9409,3.9369,3.9471,3.946,3.9459,3.9509,3.951,3.951,3.9477,3.9475,3.9473,3.9471,3.9507,3.951,3.9513,3.9575,0,0,3.9524,3.9525,0,0,0,0,0,0,0,0,3.9406,3.9413,3.9461,3.9461,3.946,3.9486,3.9486,3.9532,3.9478,3.947,3.9472,3.947,3.9502,3.9506,3.9518,3.9577,3.9578,3.9524,3.9526,3.9527,3.9528,0,0,0,0,0,0,0,3.9403,3.9411,3.9486,3.9462,3.9461,3.9452,3.9456,3.9494,3.9497,3.9471,3.9468,3.9474,3.9502,3.9514,3.9518,3.9579,3.9524,3.9527,3.9529,3.953,3.9692,3.9694,0,0,0,0,0,0,3.9402,3.9409,3.9485,3.9487,3.9428,3.9456,3.946,3.948,3.9497,3.9497,3.9475,3.9472,3.951,3.9514,3.9519,3.9594,3.9527,3.9531,3.9532,3.969,3.9693,3.9695,0,0,0,0,0,0,3.94,3.9409,3.9483,3.9447,3.9456,3.946,3.9482,3.9482,3.9494,3.95,3.95,3.9488,3.9508,3.9515,3.9562,3.9595,3.9532,3.9535,3.9687,3.9691,3.9694,3.9744,0,0,0,0,0,0,3.9397,3.9409,3.9433,3.9448,3.9458,3.9526,3.9484,3.9484,3.9501,3.9496,3.9512,3.9513,3.9507,3.9557,3.9565,3.9599,3.9538,3.9684,3.9689,3.9693,3.9739,3.9749,3.9757,0,0,0,0,0,3.9394,3.9444,3.9434,3.9444,3.9489,3.9528,3.9534,3.9527,3.9503,3.9527,3.9531,3.9512,3.959,3.9562,3.9571,3.9606,3.9682,3.9687,3.9692,3.9736,3.9747,3.9756,0,0,0,0,0,0,3.9431,3.9446,3.9435,3.9493,3.951,3.9523,3.9553,3.9539,3.9563,3.9558,3.9547,3.9551,3.9602,3.9608,3.9577,3.9667,3.9632,3.9639,3.9662,3.9673,3.9681,3.9679,3.954,0,0,0,0,0,3.9447,3.9479,3.9489,3.9539,3.9548,3.9549,3.9566,3.956,3.9577,3.9583,3.9591,3.9607,3.9635,3.9654,3.968,3.9739,3.9743,3.9768,3.9776,3.9783,3.979,3.9824,3.9835,3.9712,3.9712,3.9712,0,0,3.9478,3.949,3.9511,3.9547,3.956,3.9593,3.9555,3.9591,3.9616,3.9588,3.9635,3.9641,3.9658,3.9712,3.9737,3.9719,3.9825,3.979,3.9795,3.9798,3.983,3.9842,3.9852,3.9715,3.9715,3.9714,0,0,3.9553,3.9565,3.9609,3.9622,3.9642,3.9643,3.9653,3.9668,3.9672,3.9718,3.9699,3.9727,3.9775,3.9789,3.9802,3.9883,3.9867,3.9891,3.9937,3.997,3.998,3.9988,4.0019,4.003,3.9897,3.9898,3.9898,0,3.959,3.964,3.9632,3.9671,3.9688,3.9665,3.971,3.9722,3.9749,3.9761,3.9741,3.9803,3.9812,3.9871,3.9891,3.9901,3.9913,3.989,3.9979,3.9987,3.9995,4.0024,4.0036,3.9901,3.99,3.99,3.99,0,3.9685,3.972,3.9752,3.9781,3.9801,3.9842,3.984,3.9861,3.9853,3.9855,3.9903,3.9914,3.9943,3.9956,3.9947,4.0013,4.0002,3.998,3.9945,4.001,4.0038,4.0048,3.9905,3.9904,3.9903,3.9902,0,0,3.9786,3.981,3.9823,3.9836,3.9857,3.9883,3.9923,3.9952,3.9971,3.999,4.0024,4.0065,4.0046,4.0061,4.0054,4.0082,4.0148,4.0058,4.0058,4.0076,4.0223,4.0241,4.0254,4.0136,4.0139,4.014,4.0222,0,3.9863,3.9935,3.9929,3.9996,4.0029,4.0008,4.0043,4.0059,4.0062,4.0089,4.0091,4.0122,4.0094,4.0103,4.013,4.0134,4.0178,4.0128,4.0168,4.017,4.0167,4.0268,4.0286,4.0363,4.0233,4.0234,4.0236,0,3.9963,3.9988,4.0059,4.0076,4.009,4.0121,4.0148,4.0175,4.0192,4.0192,4.021,4.0198,4.0238,4.02,4.0255,4.0221,4.0237,4.0242,4.0244,4.0249,4.0208,4.0277,4.0387,4.04,4.0252,4.0251,4.0249,0,4.0033,4.0083,4.0133,4.0144,4.0165,4.0188,4.0197,4.0212,4.0231,4.0254,4.0266,4.0292,4.0308,4.0328,4.0324,4.0296,4.038,4.0342,4.0382,4.0383,4.0402,4.0402,4.0519,4.0409,4.0409,4.0409,4.0408,0,4.0121,4.0166,4.0164,4.0195,4.0244,4.0237,4.0286,4.0292,4.0306,4.0337,4.0319,4.0349,4.034,4.0369,4.0365,4.0412,4.0418,4.042,4.0419,4.0423,4.0423,4.0434,4.043,4.0412,4.0411,4.041,4.041,0,4.0207,4.0208,4.0261,4.0277,4.0281,4.0317,4.033,4.0359,4.036,4.04,4.0409,4.0411,4.0444,4.0441,4.0477,4.0475,4.0534,4.0525,4.0529,4.0528,4.0569,4.0566,4.0699,4.0717,4.0594,4.0595,4.0596,0,4.0265,4.0299,4.0319,4.0339,4.0351,4.0383,4.0403,4.0396,4.0417,4.044,4.0466,4.0498,4.0523,4.0577,4.0581,4.0609,4.0602,4.0647,4.0606,4.061,4.0605,4.0604,4.0608,4.0655,4.0657,4.0658,4.0659,0,4.0368,4.0367,4.0396,4.0426,4.045,4.0472,4.0493,4.051,4.0506,4.053,4.0564,4.0584,4.0622,4.0654,4.0681,4.0689,4.0674,4.0671,4.0683,4.0688,4.069,4.0692,4.0553,4.0669,4.0668,4.0667,4.0667,4.0666,4.0443,4.0473,4.0492,4.0526,4.0541,4.0561,4.0589,4.0595,4.0624,4.0656,4.0649,4.0689,4.0705,4.074,4.0751,4.0782,4.0765,4.0781,4.0785,4.079,4.0796,4.0684,4.0786,4.0786,4.0785,4.0785,4.0785,0,4.0546,4.0558,4.0589,4.0619,4.0646,4.0629,4.0651,4.0674,4.071,4.0727,4.0753,4.0793,4.0824,4.0831,4.0861,4.0884,4.0877,4.0892,4.0891,4.0894,4.0807,4.0796,4.0897,4.0897,4.0897,4.0897,4.0897,4.0897,4.0603,4.0655,4.0656,4.0714,4.0725,4.0764,4.0779,4.0797,4.0811,4.0858,4.0884,4.0889,4.0902,4.0933,4.0961,4.0962,4.0974,4.0992,4.0991,4.0911,4.09,4.0889,4.0878,4.0995,4.0995,4.1075,4.1076,4.1076]}]]